Home > Time Zones > World Clock > Weather > U.S.A. > Knox > Past weeks

Flag for U.S.A. Weather past 2 weeks in Knox, Indiana, U.S.A.

Now
69 °F

Passing clouds.


Feels Like: 69 °F
Forecast: 66 / 79 °F
Wind: 5 mph from South

Location: Porter County Municipal Airport

Current Time: Aug 21, 2014 at 6:11:43 AM

Latest Report: Aug 21, 2014 at 4:53 AM


Visibility: 10 mi

Pressure: 29.94 "Hg

Humidity: 93%

Dew point: 67 °F

Location of KnoxLocation

Historic Weather in Knox — Graph

°F

Knox temperature yesterday

Maximum temperature yesterday: 85 °F (at 3:53 PM)
Minimum temperature yesterday: 64 °F (at 4:53 AM)
Average temperature yesterday: 75 °F

Past Weeks' High & Low Weather Summary

 TemperatureHumidityPressure
High85 °F (Aug 20, 3:53 PM)97% (Aug 12, 11:57 AM)30.12 "Hg (Aug 12, 11:57 AM)
Low44 °F (Aug 15, 5:53 AM)40% (Aug 8, 3:53 PM)29.73 "Hg (Aug 12, 3:53 AM)
Average68 °F78%29.96 "Hg
* Reported Aug 6 4:00 AM — Aug 21 4:53 AM, Knox, Weather by CustomWeather, © 2014

Note: Actual official high and low records may vary slightly from our data, if they occured in-between our weather recording intervals... More about our weather records

Advertising

Knox weather history for previous 24 hours

 ConditionsComfort  
Time TempWeatherWind HumidityBarometerVisibility
4:53 AM
Aug 21
69 °FPassing clouds.5 mph93%29.94 "Hg10 mi
3:53 AM68 °FLight rain. Passing clouds.3 mph93%29.95 "Hg10 mi
2:53 AM69 °FLight rain. Passing clouds.5 mph93%29.96 "Hg8 mi
1:53 AM70 °FOvercast.9 mph90%29.97 "Hg10 mi
12:53 AM70 °FOvercast.9 mph87%29.97 "Hg10 mi
11:53 PM
Aug 20
71 °FPassing clouds.5 mph84%29.96 "Hg10 mi
10:53 PM72 °FClear.3 mph84%29.97 "Hg10 mi
9:53 PM73 °FClear.8 mph88%29.95 "Hg10 mi
8:53 PM75 °FClear.7 mph82%29.92 "Hg10 mi
7:53 PM78 °FClear.10 mph74%29.90 "Hg10 mi
6:53 PM80 °FSunny.9 mph62%29.89 "Hg10 mi
5:53 PM82 °FSunny.9 mph58%29.88 "Hg10 mi
4:53 PM84 °FSunny.10 mph51%29.88 "Hg10 mi
3:53 PM85 °FSunny.12 mph46%29.88 "Hg10 mi
2:53 PM84 °FSunny.14 mph49%29.90 "Hg10 mi
1:53 PM83 °FSunny.13 mph55%29.92 "Hg10 mi
12:53 PM83 °FPassing clouds.17 mph55%29.93 "Hg10 mi
11:53 AM81 °FScattered clouds.12 mph60%29.92 "Hg10 mi
10:53 AM80 °FSunny.10 mph60%29.89 "Hg10 mi
9:53 AM79 °FSunny.5 mph60%29.88 "Hg10 mi
8:53 AM74 °FSunny.6 mph76%29.88 "Hg10 mi
7:53 AM70 °FSunny.6 mph84%29.85 "Hg10 mi
6:53 AM65 °FSunny.No wind94%29.84 "Hg8 mi
Weather by CustomWeather, © 2014

See weather overviewHow to use our weather pages